sat.trackr.live / text

‹ back to catalog

ONEWEB-0634

NORAD 56075 · 2023-043AF

PAYLOAD ACTIVE UNKNOWN

§ Identity

Operator
Country
UK
Launch date
2023-03-26
Launch site
SRILR
Launch vehicle
Mass (kg)
RCS (m²)

Purposes: comms

External: N2YO · Heavens-Above · Gunter

§ Orbital elements

Epoch: 2026-09-20T05:17:36.536064Z

Period
109.46 min
Inclination
87.8984°
Eccentricity
0.0001778
Mean motion
13.15547799 rev/d
Perigee alt
1,200.4 km
Apogee alt
1,203.1 km
Semi-major
7,579.9 km
B*
2.7874e-4
RAAN
240.2786°
Arg perigee
90.0434°
Mean anomaly
270.0900°
Rev number
16,889

§ Raw data

ONEWEB-06341 56075U 23043AF  26263.22056176  .00000118  00000+0  27874-3 0  99932 56075  87.8984 240.2786 0001778  90.0434 270.0900 13.15547799168892

JSON: /api/v1/satellites/56075 · /tle

For live sub-satellite position, see the globe view (requires WebGL).

§ Visibility from observer

Set your observer location to see the next 7 days of passes ≥ 10°. The values pass through the URL so the page stays shareable.

No JS? Fill the form by hand. The geolocation button needs JavaScript.